Location: Unspecified
(44.4377°N, 88.0525°W)
Time: 03:29:21
(UTC-05:00)

Resurs 1-4 Rocket - Visible Passes

Search period start: 26 August 2016 00:00
Search period end: 05 September 2016 00:00
Orbit: 799 x 815 km, 98.4° (Epoch: 24 August)

Date Brightness Start Highest point End Pass type
(mag) Time Alt. Az. Time Alt. Az. Time Alt. Az.
26 Aug 2.7 03:17:01 10° NNE 03:22:09 50° E 03:23:37 39° SE visible
26 Aug 3.4 04:57:32 10° N 05:01:40 24° WNW 05:04:41 15° WSW visible
27 Aug 3.5 02:52:50 10° NE 02:57:28 30° E 02:58:41 27° ESE visible
27 Aug 2.8 04:32:32 10° N 04:37:21 37° WNW 04:39:46 24° WSW visible
28 Aug 4.1 02:29:02 10° NE 02:32:41 19° E 02:33:46 18° ESE visible
28 Aug 2.2 04:07:44 10° N 04:12:55 60° WNW 04:14:50 37° SW visible
29 Aug 4.6 02:06:28 10° ENE 02:07:49 11° E 02:08:50 10° E visible
29 Aug 2.0 03:43:07 10° NNE 03:48:26 85° ESE 03:49:54 49° S visible
29 Aug 3.9 05:24:40 10° NNW 05:27:34 15° WNW 05:30:28 10° W visible
30 Aug 2.7 03:18:41 10° NNE 03:23:51 52° E 03:24:58 44° SE visible
30 Aug 3.4 04:59:16 10° NNW 05:03:20 23° WNW 05:06:03 16° WSW visible
31 Aug 3.4 02:54:28 10° NNE 02:59:10 32° E 03:00:03 30° ESE visible
31 Aug 2.8 04:34:14 10° N 04:39:01 36° WNW 04:41:08 26° WSW visible
01 Sep 4.1 02:30:37 10° NE 02:34:25 20° E 02:35:07 19° ESE visible
01 Sep 2.2 04:09:26 10° N 04:14:37 58° WNW 04:16:11 41° SW visible
02 Sep 4.6 02:07:48 10° ENE 02:09:33 11° E 02:10:11 11° E visible
02 Sep 2.0 03:44:48 10° NNE 03:50:07 88° ESE 03:51:16 57° SSW visible
02 Sep 3.9 05:26:27 10° NNW 05:29:13 15° WNW 05:32:00 10° W visible
03 Sep 2.6 03:20:21 10° NNE 03:25:32 54° E 03:26:20 49° SE visible
03 Sep 3.4 05:00:59 10° NNW 05:05:00 22° WNW 05:07:24 17° W visible
04 Sep 3.3 02:56:07 10° NNE 03:00:53 33° E 03:01:23 32° ESE visible
04 Sep 2.8 04:35:57 10° N 04:40:42 35° WNW 04:42:28 27° WSW visible
